Weather History for KMRJ - December, 2012

Change the Weather History Date:

Saturday, December 22, 2012

  Actual Average (KLNR) Record (KLNR)
Temperature  
Mean Temperature 16 °F -  
Max Temperature 26 °F 26 °F 44 °F (2001)
Min Temperature 6 °F 12 °F -16 °F (2000)
Degree Days  
Heating Degree Days 49    
Moisture  
Dew Point 10 °F    
Average Humidity 76    
Maximum Humidity 86    
Minimum Humidity 59    
Precipitation  
Precipitation 0.00 in - - ()
Sea Level Pressure  
Sea Level Pressure 30.05 in    
Wind  
Wind Speed 4 mph (SSE)    
Max Wind Speed 9 mph    
Max Gust Speed -    
Visibility 10 miles    
Events      
Averages and records for this station are not official NWS values.
T = Trace of Precipitation, MM = Missing Value Source: NWS Daily Summary

Daily Weather History Graph

Daily Weather History Graph

Search for Another Location

Airport or City:

Trip Planner

Search our weather history database for the weather conditions in past years. The results will help you decide how hot, cold, wet, or windy it might be!

Date:

Astronomy

Dec. 22, 2012 Rise Set
Actual Time 7:29 AM CST 4:30 PM CST
Civil Twilight 6:56 AM CST 5:02 PM CST
Nautical Twilight 6:21 AM CST 5:38 PM CST
Astronomical Twilight 5:46 AM CST 6:13 PM CST
Moon 12:52 PM CST (12/22) 2:10 AM CST (12/22)
Length of Visible Light 10h 05m
Length of Day
9h 01m
Waxing Gibbous, 74% of the Moon is Illuminated
Dec 22
Waxing Gibbous
Dec 28
Full
Jan 4
Last Quarter
Jan 11
New
Jan 18
First Quarter

Hourly Weather History & Observations

Time (CST) Temp. Windchill Dew Point Humidity Pressure Visibility Wind Dir Wind Speed Gust Speed Precip Events Conditions
12:15 AM 10.4 °F 0.8 °F 6.8 °F 85% 30.17 in 10.0 mi West 5.8 mph - N/A   Clear
12:35 AM 12.2 °F 4.3 °F 6.8 °F 79% 30.17 in 10.0 mi WNW 4.6 mph - N/A   Clear
12:55 AM 12.2 °F 4.3 °F 8.6 °F 85% 30.17 in 10.0 mi WNW 4.6 mph - N/A   Clear
1:15 AM 10.4 °F - 6.8 °F 85% 30.17 in 10.0 mi Calm Calm - N/A   Clear
1:35 AM 10.4 °F 2.2 °F 6.8 °F 85% 30.17 in 10.0 mi WNW 4.6 mph - N/A   Clear
1:55 AM 12.2 °F 4.3 °F 6.8 °F 79% 30.17 in 10.0 mi NW 4.6 mph - N/A   Clear
2:15 AM 12.2 °F - 8.6 °F 85% 30.17 in 10.0 mi Calm Calm - N/A   Clear
2:35 AM 12.2 °F - 6.8 °F 79% 30.17 in 10.0 mi Calm Calm - N/A   Clear
2:55 AM 10.4 °F - 6.8 °F 85% 30.17 in 10.0 mi Calm Calm - N/A   Clear
3:15 AM 10.4 °F - 6.8 °F 85% 30.16 in 10.0 mi Calm Calm - N/A   Clear
3:35 AM 8.6 °F -1.3 °F 5.0 °F 85% 30.16 in 10.0 mi West 5.8 mph - N/A   Clear
3:55 AM 8.6 °F 2.0 °F 5.0 °F 85% 30.16 in 10.0 mi WNW 3.5 mph - N/A   Clear
4:15 AM 10.4 °F - 6.8 °F 85% 30.15 in 10.0 mi Calm Calm - N/A   Clear
4:35 AM 10.4 °F - 6.8 °F 85% 30.15 in 10.0 mi Calm Calm - N/A   Clear
4:55 AM 10.4 °F - 6.8 °F 85% 30.14 in 10.0 mi Calm Calm - N/A   Clear
5:15 AM 12.2 °F - 8.6 °F 85% 30.15 in 10.0 mi Calm Calm - N/A   Clear
5:35 AM 10.4 °F - 6.8 °F 85% 30.15 in 10.0 mi Calm Calm - N/A   Clear
5:55 AM 10.4 °F - 6.8 °F 85% 30.15 in 10.0 mi Calm Calm - N/A   Clear
6:15 AM 10.4 °F - 6.8 °F 85% 30.15 in 10.0 mi Calm Calm - N/A   Clear
6:35 AM 10.4 °F 4.0 °F 6.8 °F 85% 30.15 in 10.0 mi SSE 3.5 mph - N/A   Clear
6:55 AM 8.6 °F - 5.0 °F 85% 30.15 in 10.0 mi Calm Calm - N/A   Clear
7:15 AM 6.8 °F -0.1 °F 1.4 °F 79% 30.14 in 10.0 mi SE 3.5 mph - N/A   Clear
7:35 AM 6.8 °F - 3.2 °F 85% 30.14 in 10.0 mi Calm Calm - N/A   Clear
7:55 AM 10.4 °F - 5.0 °F 79% 30.15 in 10.0 mi Calm Calm - N/A   Clear
8:15 AM 10.4 °F 2.2 °F 5.0 °F 79% 30.15 in 10.0 mi SSE 4.6 mph - N/A   Clear
8:35 AM 8.6 °F -1.3 °F 5.0 °F 85% 30.14 in 10.0 mi SSE 5.8 mph - N/A   Clear
8:55 AM 10.4 °F 0.8 °F 5.0 °F 79% 30.14 in 10.0 mi SE 5.8 mph - N/A   Clear
9:15 AM 10.4 °F 2.2 °F 6.8 °F 85% 30.14 in 10.0 mi SE 4.6 mph - N/A   Clear
9:35 AM 12.2 °F 1.7 °F 8.6 °F 85% 30.13 in 10.0 mi SE 6.9 mph - N/A   Clear
9:55 AM 14.0 °F 3.9 °F 10.4 °F 86% 30.13 in 10.0 mi SE 6.9 mph - N/A   Clear
10:15 AM 17.6 °F 8.2 °F 10.4 °F 73% 30.12 in 10.0 mi SSE 6.9 mph - N/A   Clear
10:35 AM 19.4 °F 10.4 °F 10.4 °F 68% 30.11 in 10.0 mi SSE 6.9 mph - N/A   Clear
10:55 AM 19.4 °F 9.5 °F 10.4 °F 68% 30.10 in 10.0 mi SSE 8.1 mph - N/A   Clear
11:15 AM 19.4 °F 10.4 °F 10.4 °F 68% 30.08 in 10.0 mi SSE 6.9 mph - N/A   Clear
11:35 AM 19.4 °F 10.4 °F 10.4 °F 68% 30.07 in 10.0 mi SSE 6.9 mph - N/A   Clear
11:55 AM 21.2 °F 13.6 °F 10.4 °F 63% 30.06 in 10.0 mi SSE 5.8 mph - N/A   Clear
12:15 PM 21.2 °F 13.6 °F 10.4 °F 63% 30.05 in 10.0 mi South 5.8 mph - N/A   Clear
12:35 PM 21.2 °F 14.9 °F 12.2 °F 68% 30.04 in 10.0 mi SSE 4.6 mph - N/A   Clear
12:55 PM 21.2 °F 14.9 °F 12.2 °F 68% 30.03 in 10.0 mi SSE 4.6 mph - N/A   Clear
1:15 PM 23.0 °F 18.4 °F 12.2 °F 63% 30.03 in 10.0 mi SSE 3.5 mph - N/A   Clear
1:35 PM 24.8 °F 19.1 °F 12.2 °F 59% 30.01 in 10.0 mi SSE 4.6 mph - N/A   Clear
1:55 PM 24.8 °F 20.5 °F 14.0 °F 64% 30.01 in 10.0 mi SSE 3.5 mph - N/A   Clear
2:15 PM 26.6 °F 21.2 °F 14.0 °F 59% 30.00 in 10.0 mi SSE 4.6 mph - N/A   Clear
2:35 PM 26.6 °F 20.0 °F 14.0 °F 59% 29.99 in 10.0 mi SSE 5.8 mph - N/A   Clear
2:55 PM 26.6 °F 19.1 °F 14.0 °F 59% 29.99 in 10.0 mi SSE 6.9 mph - N/A   Clear
3:15 PM 26.6 °F 20.0 °F 14.0 °F 59% 29.98 in 10.0 mi SSE 5.8 mph - N/A   Clear
3:35 PM 24.8 °F 19.1 °F 14.0 °F 64% 29.99 in 10.0 mi SE 4.6 mph - N/A   Clear
3:55 PM 24.8 °F 17.9 °F 14.0 °F 64% 29.99 in 10.0 mi SE 5.8 mph - N/A   Clear
4:15 PM 24.8 °F 17.9 °F 14.0 °F 64% 29.99 in 10.0 mi East 5.8 mph - N/A   Clear
4:35 PM 23.0 °F 13.9 °F 14.0 °F 68% 29.96 in 10.0 mi ESE 8.1 mph - N/A   Clear
4:55 PM 23.0 °F 13.1 °F 14.0 °F 68% 29.95 in 10.0 mi SE 9.2 mph - N/A   Clear
5:15 PM 23.0 °F 13.9 °F 12.2 °F 63% 29.94 in 10.0 mi SE 8.1 mph - N/A   Clear
5:35 PM 21.2 °F 10.9 °F 12.2 °F 68% 29.94 in 10.0 mi SE 9.2 mph - N/A   Clear
5:55 PM 21.2 °F 10.9 °F 12.2 °F 68% 29.93 in 10.0 mi SSE 9.2 mph - N/A   Clear
6:35 PM 21.2 °F 11.7 °F 12.2 °F 68% 29.94 in 10.0 mi SSE 8.1 mph - N/A   Clear
6:55 PM 21.2 °F 16.4 °F 12.2 °F 68% 29.95 in 10.0 mi SSE 3.5 mph - N/A   Clear
7:15 PM 21.2 °F 16.4 °F 12.2 °F 68% 29.95 in 10.0 mi South 3.5 mph - N/A   Clear
7:35 PM 21.2 °F 13.6 °F 12.2 °F 68% 29.94 in 10.0 mi South 5.8 mph - N/A   Clear
7:55 PM 21.2 °F 14.9 °F 14.0 °F 74% 29.94 in 10.0 mi SSE 4.6 mph - N/A   Clear
8:15 PM 21.2 °F 13.6 °F 14.0 °F 74% 29.94 in 10.0 mi SSE 5.8 mph - N/A   Clear
8:35 PM 21.2 °F - 14.0 °F 74% 29.94 in 10.0 mi Calm Calm - N/A   Clear
8:55 PM 21.2 °F 16.4 °F 15.8 °F 80% 29.94 in 10.0 mi SSE 3.5 mph - N/A   Clear
9:15 PM 21.2 °F - 15.8 °F 80% 29.94 in 10.0 mi Calm Calm - N/A   Clear
9:35 PM 21.2 °F - 15.8 °F 80% 29.94 in 10.0 mi Calm Calm - N/A   Clear
9:55 PM 19.4 °F - 14.0 °F 80% 29.94 in 10.0 mi Calm Calm - N/A   Clear
10:15 PM 19.4 °F - 15.8 °F 86% 29.93 in 10.0 mi Calm Calm - N/A   Clear
10:35 PM 19.4 °F - 14.0 °F 80% 29.93 in 10.0 mi Calm Calm - N/A   Clear
10:55 PM 15.8 °F - 12.2 °F 86% 29.93 in 10.0 mi Calm Calm - N/A   Clear
11:15 PM 17.6 °F - 14.0 °F 86% 29.92 in 10.0 mi Calm Calm - N/A   Clear
11:35 PM 17.6 °F 12.3 °F 14.0 °F 86% 29.92 in 10.0 mi North 3.5 mph - N/A   Clear
11:55 PM 17.6 °F - 14.0 °F 86% 29.92 in 10.0 mi Calm Calm - N/A   Clear